This demonstration page uses our WeatherBlox Daily Observations layout. Learn more.

Left ArrowRight Arrow

39.29038, -76.61219

Hourly Observations for January 13, 2020

Temp ( °F °C ) Dew Point ( °F °C ) Humidity (%) Winds ( mph kmh ) Pressure ( in mb ) Visibility ( mi km ) Precip ( " mm )
12:54 am 00:54 undefined 47 8.3 36 2.2 66 66 undefined N/A 30.36 1028 N/A 0.00 0.00
1:54 am 01:54 undefined 47 8.3 35 1.7 63 63 undefined N/A 30.36 1028 N/A 0.00 0.00
2:54 am 02:54 undefined 46 7.8 35 1.7 66 66 undefined N/A 30.37 1028 N/A 0.00 0.00
3:54 am 03:54 undefined 46 7.8 35 1.7 66 66 undefined N/A 30.35 1028 N/A 0.00 0.00
4:54 am 04:54 undefined 46 7.8 35 1.7 66 66 undefined N/A 30.36 1028 N/A 0.00 0.00
5:54 am 05:54 undefined 46 7.8 35 1.7 66 66 undefined N/A 30.35 1028 N/A 0.00 0.00
6:54 am 06:54 undefined 46 7.8 35 1.7 66 66 undefined N/A 30.36 1028 N/A 0.00 0.00
7:54 am 07:54 undefined 46 7.8 36 2.2 68 68 undefined N/A 30.36 1028 N/A 0.00 0.00
8:54 am 08:54 undefined 46 7.8 37 2.8 71 71 undefined N/A 30.38 1029 N/A 0.00 0.00
9:54 am 09:54 undefined 48 8.9 39 3.9 71 71 undefined N/A 30.40 1030 N/A 0.00 0.00
10:54 am 10:54 undefined 49 9.4 39 3.9 69 69 undefined N/A 30.40 1029 N/A 0.00 0.00
11:54 am 11:54 undefined 51 10.6 40 4.4 66 66 undefined N/A 30.37 1029 N/A 0.00 0.00
12:54 pm 12:54 undefined 52 11.1 41 5 66 66 undefined N/A 30.35 1028 N/A 0.00 0.00
1:54 pm 13:54 undefined 53 11.7 42 5.6 66 66 undefined N/A 30.34 1027 N/A 0.00 0.00
2:54 pm 14:54 undefined 52 11.1 42 5.6 69 69 undefined N/A 30.32 1027 N/A 0.00 0.00
3:54 pm 15:54 undefined 50 10 42 5.6 74 74 undefined N/A 30.32 1027 N/A 0.00 0.00
4:54 pm 16:54 undefined 48 8.9 42 5.6 80 80 undefined N/A 30.32 1027 N/A 0.00 0.00
5:54 pm 17:54 undefined 47 8.3 42 5.6 83 83 undefined N/A 30.34 1028 N/A 0.00 0.00
6:54 pm 18:54 undefined 47 8.3 42 5.6 83 83 undefined N/A 30.36 1028 N/A 0.00 0.00
7:54 pm 19:54 undefined 47 8.3 41 5 80 80 undefined N/A 30.37 1028 N/A 0.00 0.00
8:54 pm 20:54 undefined 46 7.8 41 5 83 83 undefined N/A 30.38 1029 N/A 0.00 0.00
9:54 pm 21:54 undefined 46 7.8 41 5 83 83 undefined N/A 30.38 1029 N/A 0.00 0.00
10:54 pm 22:54 undefined 46 7.8 41 5 83 83 undefined N/A 30.38 1029 N/A 0.00 0.00
11:54 pm 23:54 undefined 44 6.7 40 4.4 85 85 undefined N/A 30.36 1028 N/A 0.00 0.00

Powered by AerisWeather